{"data":{"norad_id":58550,"intl_designator":"2023-192V","name":"STARLINK-31056","alt_names":[],"object_type":"PAYLOAD","status":"ACTIVE","operator":null,"country":"US","launch_date":"2023-12-08","launch_site_code":"AFWTR","launch_vehicle":null,"mission":null,"orbit_class":"UNKNOWN","rcs_meters":null,"size_class":null,"mass_kg":null,"dimensions":null,"purposes":["comms"],"wikipedia_slug":null,"has_3d_model":false,"image_url":null,"decayed_at":null,"tle_current":{"epoch":"2026-05-25T01:55:08.671008Z","epoch_age_seconds":75341,"freshness":"FRESH","line1":"1 58550U 23192V   26145.07996147  .00002273  00000+0  88850-4 0  9997","line2":"2 58550  53.1603  67.7330 0001069  88.1113 272.0011 15.30202552137680","mean_motion":15.30202552,"eccentricity":0.0001069,"inclination_deg":53.1603,"raan_deg":67.733,"arg_perigee_deg":88.1113,"mean_anomaly_deg":272.0011,"bstar":8.885e-5,"rev_number":13768,"period_min":94.105188761965,"perigee_km":474.47482709625,"apogee_km":475.94007213958,"semimajor_km":6853.3444496179,"source":"CELESTRAK","updated_at":"2026-05-25T13:38:18.664377Z"}}}